Preview of NWS' New Version of Forecast
This preview is not operational and should not be used for support decisions.

Regional Weather Roundup (RWR)

Issued by National Weather Service (NWS)

                            
000
ASUS45 KBOI 230710
RWRID 

IDAHO REGIONAL WEATHER ROUNDUP
NATIONAL WEATHER SERVICE BOISE ID
100 AM MDT SUN JUN 23 2019

NOTE: "FAIR" INDICATES FEW OR NO CLOUDS BELOW 12000 FEET
WITH NO SIGNIFICANT WEATHER AND/OR OBSTRUCTIONS TO VISIBILITY

IDZ012-014-230800-
SOUTHWEST IDAHO

  
CITY           SKY/WX    TMP DP  RH WIND       PRES   REMARKS
BOISE          MOCLDY    61  41  47 SE7       30.03F                  
CALDWELL       MOCLDY    58  44  60 E6        30.01F                  
MOUNTAIN HOME  CLOUDY    59  37  45 N3        30.04F                  
$$

IDZ016-017-230800-
SOUTHCENTRAL IDAHO

  
CITY           SKY/WX    TMP DP  RH WIND       PRES   REMARKS
BURLEY         CLOUDY    53  35  50 SW10      30.09F                  
JEROME         MOCLDY    56  37  49 S6        30.09S                  
TWIN FALLS     PTCLDY    53  29  39 S14       30.10F                  
$$

IDZ019>023-230800-
SOUTHEAST IDAHO

  
CITY           SKY/WX    TMP DP  RH WIND       PRES   REMARKS
IDAHO FALLS    MOCLDY    47  39  74 CALM      30.12F                  
POCATELLO      PTCLDY    54  30  40 SW9       30.12S                  
REXBURG        PTCLDY    46  42  86 N5        30.13S                  
$$

IDZ006-010-011-018-031-032-230800-
CENTRAL IDAHO MOUNTAINS

  
CITY           SKY/WX    TMP DP  RH WIND       PRES   REMARKS
MCCALL         CLOUDY    51  42  71 CALM      30.09F                  
HAILEY         MOCLDY    50  41  71 NW7       30.15R                  
STANLEY          N/A     44  34  67 SE3       30.19S                  
SALMON         PTCLDY    48  39  71 CALM      30.10S                  
CHALLIS        MOCLDY    53  35  50 CALM      30.11F                  
$$

IDZ002-004-006-007-026-230800-
NORTHERN IDAHO

  
CITY           SKY/WX    TMP DP  RH WIND       PRES   REMARKS
LEWISTON       PTCLDY    67  50  54 CALM      29.96S                  
LOWELL           N/A     56  52  86 VRB3      30.03S                  
COEUR D'ALENE  CLOUDY    61  50  67 S6        29.97S                  
MULLAN PASS    MOCLDY    46  41  82 S6        30.08F                  
$$